User: anonymous   Login
Location: Theydon Bois
(51.6750°N, 0.1050°E)
Time: 15:59:27
(UTC+01:00)
Language:

Cosmos 1733 - Orbit

View from above orbital plane
View from above orbital plane
View from above satellite
View from above satellite

Ground track
Ground track

The orbit data is extracted from the following two-line orbital elements,

1 16611U 86018A   17290.94276211 +.00000384 +00000-0 +18081-4 0  9996
2 16611 082.4871 277.2496 0010875 277.5587 082.4410 15.16495753727322
Epoch (UTC): 17 October 2017 22:37:34
Eccentricity: 0.0010875
inclination: 82.4871°
perigee height: 509 km
apogee height: 524 km
right ascension of ascending node: 277.2496°
argument of perigee: 277.5587°
revolutions per day: 15.16495753
mean anomaly at epoch: 82.4410°
orbit number at epoch: 72732

The dashed part of the orbit path shows where the satellite is in the earth's shadow,  

DLR